INTELSAT 903 (IS-903) (27403 NORAD) Tracking and Keplerian Element Data

This shows tracking and keplerian element data for the satellite.

Feedback or suggestion? Click here.




ElementValue
Catalog27403
NameINTELSAT 903 (IS-903)
Epoch Orbit5968
Epoch Day201.49198088
Epoch Year2018
RAAN94.1485
Inclination0.7008
Eccentricity0.000296
Argument of Perigee18.3564
Mean Anonmoly331.3064
Mean Motion1.00272163
Decay Rate-2.41E-06
L11 27403U 02016A 18201.49198088 -.00000241 00000-0 00000+0 0 9991
L22 27403 0.7008 94.1485 0002960 18.3564 331.3064 1.00272163 59688

Live tracking and technical data element details for INTELSAT 903 (IS-903) (NORAD 27403). INTELSAT 903 (IS-903) can be tracked NOW for your location showing map with azimuth and elevation plus other details from your city location.

Track the satellite on the map from your city or location and see movement details for azimuth, elevation, latitude, longitude, range, height, and movement on the map or in text.







IsCatalogInMostPopularTable: catalog: 27403, numindb: 58
Update: records affected: 1



GetName: 27403 INTELSAT 903 (IS-903)

Hit Count: updated at: Sat, 21 Jul 2018 07:47:26 GMT